Flag for Brazil Weather past 2 weeks in Campinas, São Paulo, Brazil

Now
70 °F

Passing clouds.


Feels Like: 70 °F
Forecast: 58 / 72 °F
Wind: 20 mph from Southeast

Location: Campinas Aeroporto

Current Time: Oct 2, 2014 at 9:43:35 AM

Latest Report: Oct 2, 2014 at 9:00 AM


Visibility: N/A

Pressure: 30.27 "Hg

Humidity: 57%

Dew point: 54 °F

Location of CampinasLocation

Historic Weather in Campinas — Graph

°F

Campinas temperature yesterday

Maximum temperature yesterday: 82 °F (at 2:00 PM)
Minimum temperature yesterday: 68 °F (at 11:00 PM)
Average temperature yesterday: 75 °F

Past Weeks' High & Low Weather Summary

 TemperatureHumidityPressure
High91 °F (Sep 24, 3:00 PM)100% (Sep 26, 5:00 PM)30.24 "Hg (Sep 26, 5:00 PM)
Low54 °F (Sep 23, 6:00 AM)19% (Sep 23, 3:00 PM)29.92 "Hg (Sep 19, 2:00 AM)
Average71 °F69%30.05 "Hg
* Reported Sep 17 8:00 AM — Oct 2 8:00 AM, Campinas, Weather by CustomWeather, © 2014

Note: Actual official high and low records may vary slightly from our data, if they occured in-between our weather recording intervals... More about our weather records

Advertising

Campinas weather history for previous 24 hours

 ConditionsComfort  
Time TempWeatherWind HumidityBarometerVisibility
8:00 AM
Oct 2
66 °FPassing clouds.16 mph68%30.24 "HgN/A
7:00 AM66 °FPassing clouds.16 mph68%30.21 "HgN/A
6:00 AM64 °FPartly sunny.18 mph73%30.18 "HgN/A
5:00 AM64 °FSunny.20 mph78%30.15 "Hg10 mi
4:00 AM66 °FClear.21 mph73%30.12 "Hg10 mi
3:00 AM66 °FPassing clouds.22 mph68%30.12 "HgN/A
2:00 AM66 °FPassing clouds.17 mph73%30.12 "HgN/A
1:00 AM66 °FPassing clouds.16 mph73%30.12 "HgN/A
12:00 AM68 °FPassing clouds.23 mph73%30.15 "HgN/A
11:00 PM
Oct 1
68 °FPassing clouds.26 mph69%30.15 "HgN/A
10:00 PM70 °FPartly cloudy.23 mph64%30.12 "HgN/A
9:00 PM70 °FClear.20 mph69%30.12 "Hg10 mi
8:00 PM72 °FPassing clouds.14 mph65%30.09 "HgN/A
7:00 PM81 °FPassing clouds.6 mph54%30.04 "HgN/A
6:00 PM81 °FPassing clouds.6 mph51%30.04 "HgN/A
5:00 PM82 °FScattered clouds.7 mph45%30.01 "HgN/A
4:00 PM82 °FSunny.6 mph45%30.04 "Hg10 mi
3:00 PM82 °FSunny.8 mph45%30.01 "Hg10 mi
2:00 PM82 °FSunny.6 mph45%30.04 "Hg10 mi
1:00 PM81 °FSunny.8 mph51%30.04 "Hg10 mi
12:00 PM73 °FBroken clouds.5 mph69%30.07 "HgN/A
11:00 AM72 °FLight rain. Broken clouds.9 mph78%30.07 "Hg6 mi
10:00 AM77 °FScattered showers. Broken clouds.12 mph54%N/AN/A
9:00 AM75 °FBroken clouds.10 mph61%30.12 "HgN/A
Weather by CustomWeather, © 2014

See weather overviewHow to use our weather pages